Date,TemperatureHighF,TemperatureAvgF,TemperatureLowF,DewpointHighF,DewpointAvgF,DewpointLowF,HumidityHigh,HumidityAvg,HumidityLow,PressureMaxIn,PressureMinIn,WindSpeedMaxMPH,WindSpeedAvgMPH,GustSpeedMaxMPH,PrecipitationSumIn
2013-1-1,36.1,29.7,22.6,35.4,28.4,20.2,99,95,88,30.00,29.80,6,1,10,0.01
2013-1-2,39.7,27.5,21.6,25.5,18.5,13.4,92,70,44,30.02,29.93,8,1,11,0.01
2013-1-3,45.0,31.2,19.0,29.8,21.9,14.5,88,69,46,30.18,30.00,8,2,10,0.00
2013-1-4,49.8,40.2,29.1,28.5,22.3,17.0,90,52,31,30.22,30.11,9,3,11,0.00
2013-1-5,41.0,36.8,33.3,32.2,30.5,29.0,85,78,69,30.00,29.94,13,5,13,0.00
2013-1-6,48.7,35.5,25.2,30.2,21.5,12.1,90,60,25,30.11,29.99,13,5,13,0.00
2013-1-7,57.2,39.4,27.5,27.7,22.5,16.7,70,53,26,30.11,29.89,14,4,14,0.00
2013-1-8,61.7,44.5,32.2,46.7,34.3,21.2,99,69,44,29.99,29.83,13,3,13,0.24
2013-1-9,51.8,48.3,44.6,47.0,43.5,37.6,99,85,64,30.12,29.99,28,6,28,0.04
2013-1-10,53.8,47.8,43.0,52.2,46.1,38.1,99,94,67,30.00,29.62,26,9,26,0.38
2013-1-11,66.9,54.8,44.6,46.3,44.5,41.8,97,71,44,29.68,29.55,22,7,22,0.00
2013-1-12,56.5,42.5,28.2,50.2,36.3,24.1,92,80,48,29.74,29.55,19,4,19,0.25
2013-1-13,28.0,21.2,13.6,24.0,15.4,8.4,86,78,65,30.09,29.71,0,0,0,0.00
2013-1-14,35.8,21.7,12.2,14.0,8.9,4.1,79,59,31,30.20,30.05,11,1,11,0.01
2013-1-15,34.7,23.8,16.9,17.5,12.5,7.4,81,63,37,30.07,29.90,13,4,13,0.00
2013-1-16,43.9,28.1,15.1,22.8,13.6,9.5,84,57,30,29.95,29.85,14,3,14,0.00
2013-1-17,50.5,35.6,26.2,32.2,22.9,12.7,79,61,43,30.24,29.95,14,4,14,0.00
2013-1-18,59.2,41.7,26.6,29.8,24.5,18.5,85,55,24,30.26,29.98,16,5,16,0.00
2013-1-19,64.4,49.6,38.1,35.9,31.8,25.0,74,52,32,29.98,29.85,17,6,17,0.00
2013-1-20,62.1,47.1,28.8,34.6,25.9,15.1,75,45,26,30.03,29.90,16,5,16,0.00
2013-1-21,41.9,28.2,19.9,17.4,11.3,2.7,65,50,24,30.14,30.02,12,4,13,0.00
2013-1-22,48.6,33.2,20.1,24.8,18.2,10.8,71,55,36,30.08,29.99,12,6,12,0.00
2013-1-23,62.2,45.1,30.6,44.2,34.3,20.2,83,67,50,30.04,29.92,14,4,14,0.00
2013-1-24,42.1,34.6,29.3,30.4,17.9,10.0,72,50,35,30.09,29.89,17,8,17,0.00
2013-1-25,51.6,36.2,26.8,33.5,27.9,21.3,97,74,45,30.02,29.87,11,3,11,0.00
2013-1-26,62.2,45.8,32.4,28.5,22.2,14.6,76,43,19,30.04,29.91,16,5,16,0.00
2013-1-27,59.4,52.6,44.6,55.5,47.5,28.8,92,83,51,29.92,29.73,19,8,19,0.00
2013-1-28,72.9,65.3,57.9,61.2,59.6,55.3,92,82,63,29.78,29.63,22,9,22,0.00
2013-1-29,67.5,59.1,46.6,62.7,56.3,46.3,99,91,80,29.64,29.27,21,7,21,2.35
2013-1-30,46.6,31.4,19.2,46.3,26.6,14.0,99,83,66,29.82,29.30,30,12,30,0.00
2013-1-31,48.0,28.1,16.2,27.5,17.5,2.1,89,66,42,30.17,29.77,23,5,23,0.00
2013-2-1,43.2,26.1,8.8,13.6,6.0,-1.0,72,45,22,30.19,29.93,17,4,17,0.00
2013-2-2,54.5,39.2,26.6,29.6,22.6,10.2,69,52,33,30.01,29.93,17,5,17,0.00
2013-2-3,56.7,43.6,32.7,28.9,22.2,14.6,73,46,21,30.05,29.76,12,4,12,0.00
2013-2-4,59.9,48.2,36.9,45.8,35.8,22.9,91,64,41,29.77,29.62,18,5,18,0.28
2013-2-5,66.2,48.3,32.5,46.4,33.6,24.6,88,61,24,29.85,29.70,18,4,18,0.00
2013-2-6,65.1,50.7,36.3,43.6,35.7,28.3,83,58,36,29.90,29.75,14,5,14,0.00
2013-2-7,61.0,50.7,42.3,53.5,48.3,39.5,99,92,69,29.86,29.66,14,5,14,0.21
2013-2-8,55.4,39.5,30.4,39.6,31.3,26.5,91,74,36,30.06,29.86,16,5,16,0.00
2013-2-9,48.7,38.3,31.5,41.3,31.8,26.4,96,79,44,29.99,29.64,17,7,17,0.17
2013-2-10,61.9,51.2,39.0,52.9,37.6,24.3,99,66,27,29.82,29.43,30,11,30,0.41
2013-2-11,55.4,40.1,27.9,28.2,23.3,15.2,80,55,23,29.96,29.82,12,4,14,0.00
2013-2-12,43.3,37.6,32.5,33.3,28.1,23.9,95,69,56,29.92,29.68,11,4,11,0.18
2013-2-13,49.8,38.3,31.3,37.9,31.4,27.5,99,79,44,29.78,29.71,20,5,20,0.07
2013-2-14,61.2,44.5,32.9,34.2,29.8,23.7,75,58,34,29.93,29.73,13,5,13,0.00
2013-2-15,41.5,33.5,21.7,30.0,17.4,3.5,79,54,24,30.08,29.93,17,6,17,0.00
2013-2-16,42.1,30.7,20.5,22.3,16.1,9.4,84,56,33,30.07,29.89,17,5,17,0.00
2013-2-17,63.3,45.1,31.3,33.8,21.1,9.7,51,39,22,29.89,29.63,15,5,15,0.00
2013-2-18,56.7,49.1,32.0,53.3,39.4,22.7,95,70,42,29.88,29.40,30,13,30,0.07
2013-2-19,45.5,32.8,19.6,23.1,16.0,11.5,78,52,29,30.07,29.88,21,5,21,0.00
2013-2-20,32.5,29.4,26.2,28.4,16.7,7.8,90,60,41,30.07,29.82,18,6,18,0.05
2013-2-21,33.3,29.5,25.7,33.0,27.6,18.8,99,92,72,29.84,29.47,13,0,13,0.00
2013-2-22,36.1,27.4,19.8,32.0,20.4,14.9,97,76,51,29.87,29.63,14,2,14,0.21
2013-2-23,45.7,29.9,18.1,23.7,18.8,13.2,88,66,37,29.87,29.72,13,3,13,0.01
2013-2-24,59.4,40.6,27.1,35.1,28.5,20.8,81,64,34,29.77,29.62,14,6,14,0.00
2013-2-25,42.1,37.4,33.1,40.0,31.8,26.8,98,81,64,29.67,29.21,21,8,21,0.41
2013-2-26,33.1,31.9,30.4,32.8,31.1,30.1,99,97,93,29.64,29.15,19,4,19,0.05
2013-2-27,37.4,32.1,29.8,31.5,28.2,24.4,97,85,72,29.83,29.62,27,10,27,0.06
2013-2-28,36.3,30.4,26.1,26.6,24.1,22.0,88,78,62,29.94,29.81,17,8,17,0.00
2013-3-1,30.7,27.6,24.6,22.8,19.6,15.7,84,71,59,30.01,29.91,15,7,15,0.00
2013-3-2,37.2,27.9,22.8,20.6,17.4,13.1,84,66,39,30.06,29.96,17,5,17,0.00
2013-3-3,60.8,42.5,23.2,30.7,23.2,15.4,78,49,28,29.96,29.59,17,5,17,0.00
2013-3-4,68.9,54.4,41.9,46.9,38.3,29.9,85,55,38,29.62,29.41,21,6,21,0.00
2013-3-5,43.5,36.9,29.3,34.2,24.9,16.2,96,64,42,30.06,29.62,31,13,31,0.11
2013-3-6,49.8,34.9,21.2,25.5,19.4,14.7,77,55,30,30.15,30.00,18,5,18,0.00
2013-3-7,65.1,48.4,32.4,32.2,24.7,18.5,75,44,18,30.04,29.92,14,5,14,0.00
2013-3-8,65.5,51.1,37.8,37.5,33.9,30.4,82,55,32,30.02,29.83,14,7,14,0.00
2013-3-9,70.0,58.5,51.4,57.1,46.6,36.1,99,67,38,29.85,29.50,20,7,20,1.55
2013-3-10,56.3,44.0,28.2,56.0,43.3,26.5,99,98,84,29.71,29.47,28,8,28,0.92
2013-3-11,43.7,32.2,25.7,29.0,23.4,19.0,93,72,41,29.81,29.66,23,10,23,0.00
2013-3-12,57.6,41.6,27.5,29.5,23.8,15.9,83,53,22,30.08,29.80,21,6,21,0.00
2013-3-13,53.8,38.1,23.7,23.1,17.5,8.3,77,47,19,30.22,30.07,14,3,14,0.00
2013-3-14,70.9,54.1,36.1,41.8,29.1,12.9,62,39,27,30.13,29.89,24,6,24,0.00
2013-3-15,79.9,64.8,49.8,48.2,44.2,37.9,81,51,23,29.91,29.60,23,7,23,0.00
2013-3-16,80.1,63.5,47.7,52.5,45.6,40.1,76,53,34,29.66,29.56,19,6,19,0.00
2013-3-17,47.3,41.3,38.7,41.1,39.4,38.0,99,93,75,29.67,29.47,20,8,20,0.14
2013-3-18,55.0,44.6,37.9,42.8,36.9,26.1,99,77,38,29.83,29.48,16,5,16,0.02
2013-3-19,59.2,44.3,32.0,30.0,23.4,14.6,77,48,21,30.02,29.81,15,4,15,0.00
2013-3-20,46.8,37.1,29.1,30.1,20.0,7.1,90,56,22,30.11,29.88,21,5,21,0.00
2013-3-21,42.1,33.0,29.3,31.9,19.3,6.4,99,62,23,29.88,29.60,15,5,15,0.07
2013-3-22,35.8,33.4,30.2,35.0,33.0,30.0,99,98,97,29.71,29.60,11,4,11,0.25
2013-3-23,38.3,35.8,33.6,38.0,35.4,33.3,99,98,97,29.70,29.49,14,6,14,0.02
2013-3-24,39.0,31.7,25.2,38.8,28.8,17.0,99,89,65,29.87,29.40,34,12,34,0.06
2013-3-25,32.7,26.5,21.4,23.2,18.5,14.2,78,72,58,30.08,29.84,22,10,22,0.00
2013-3-26,45.7,31.0,18.1,24.2,19.9,14.0,90,66,33,30.17,30.06,17,4,17,0.00
2013-3-27,61.5,53.4,30.0,33.4,24.4,17.8,68,34,21,30.08,29.92,12,5,12,0.00
2013-3-28,70.7,62.5,49.3,48.1,44.2,28.5,68,52,39,30.00,29.91,14,6,14,0.00
2013-3-29,71.8,59.4,50.9,55.6,51.5,46.8,99,76,52,29.99,29.89,11,3,11,0.07
2013-3-30,70.7,58.6,51.8,57.1,54.0,51.1,99,86,56,29.91,29.68,17,5,17,0.46
2013-3-31,70.2,60.4,48.6,53.7,43.5,31.4,99,57,26,29.78,29.68,15,5,15,0.06
2013-4-1,65.5,51.4,42.8,43.1,40.3,36.2,91,68,37,29.93,29.76,14,4,14,0.00
2013-4-2,37.4,35.3,33.8,36.1,34.4,31.6,98,97,80,30.03,29.94,14,7,14,0.50
2013-4-3,52.0,41.6,34.2,33.9,28.2,23.8,90,61,38,30.02,29.93,21,6,21,0.00
2013-4-4,57.4,45.5,36.9,38.8,34.5,27.2,99,69,37,29.93,29.85,16,3,16,0.09
2013-4-5,72.7,55.2,36.3,39.1,31.8,24.2,80,46,17,29.98,29.79,10,3,10,0.00
2013-4-6,75.0,62.4,53.1,48.5,42.9,33.9,69,50,34,29.79,29.60,24,8,24,0.00
2013-4-7,79.2,64.7,53.1,58.8,53.7,48.3,95,69,45,29.73,29.57,21,5,21,0.00
2013-4-8,71.6,64.8,58.3,61.1,58.4,54.4,99,80,69,29.63,29.52,17,6,17,0.08
2013-4-9,80.8,73.0,64.2,63.6,60.6,57.8,82,66,51,29.61,29.54,20,7,20,0.08
2013-4-10,72.3,45.2,0.0,63.6,45.6,38.4,99,96,74,29.69,29.52,19,7,19,0.30
2013-4-11,0.0,0.0,0.0,38.4,38.4,38.4,0,0,100,29.54,29.54,0,0,0,0.00
2013-4-16,81.5,68.9,0.0,64.0,59.9,38.4,90,69,53,29.92,29.78,8,4,8,0.00
2013-4-17,84.0,70.2,53.6,69.9,62.2,52.8,99,77,56,29.91,29.60,21,8,21,0.00
2013-4-18,74.8,44.5,36.3,65.8,41.5,27.1,99,90,68,29.91,29.52,30,13,30,3.05
2013-4-19,55.2,42.2,32.0,34.9,26.9,21.8,77,57,31,30.03,29.89,25,11,25,0.00
2013-4-20,68.9,53.3,38.7,42.5,34.2,27.5,81,53,23,30.13,30.02,12,3,12,0.00
2013-4-21,71.6,59.1,50.0,42.9,37.7,26.9,67,47,21,30.20,30.06,19,5,19,0.00
2013-4-22,73.4,59.7,43.0,46.7,40.5,32.9,90,53,24,30.13,29.86,17,5,17,0.00
2013-4-23,62.6,49.6,34.3,56.3,45.1,33.8,99,86,62,30.03,29.77,16,6,16,0.15
2013-4-24,58.1,42.4,32.5,36.1,30.3,20.3,99,68,27,30.23,30.02,17,6,17,0.02
2013-4-25,72.0,54.0,32.5,39.2,29.3,18.8,89,46,14,30.29,30.14,11,3,11,0.00
2013-4-26,57.6,49.4,45.5,49.4,45.4,33.9,99,88,42,30.27,30.05,18,6,18,0.76
2013-4-27,57.4,51.9,49.1,56.4,51.4,48.8,99,98,96,30.06,29.88,14,5,14,0.56
2013-4-28,80.4,60.4,48.0,54.6,50.3,46.0,99,74,32,29.97,29.82,13,3,13,0.00
2013-4-29,84.7,70.3,55.2,62.4,55.5,49.8,90,63,33,29.87,29.73,18,5,18,0.00
2013-4-30,83.5,72.0,60.1,58.5,52.2,39.6,85,54,23,29.83,29.77,18,6,18,0.00
2013-5-1,86.4,70.2,57.2,65.5,57.8,50.9,91,67,40,30.03,29.84,14,4,14,0.00
2013-5-2,62.4,48.2,32.4,59.0,46.2,32.1,99,93,78,30.17,29.99,16,6,16,0.44
2013-5-3,40.3,35.8,31.6,39.2,35.1,31.4,99,97,91,30.13,29.86,21,8,21,0.44
2013-5-4,47.7,41.5,34.3,39.4,36.9,33.7,98,84,69,29.89,29.79,10,4,11,0.70
2013-5-5,61.0,55.0,35.8,50.0,46.1,34.0,93,73,57,30.01,29.88,17,8,17,0.70
2013-5-6,63.3,57.7,48.6,53.7,51.3,47.8,99,80,67,30.02,29.95,11,5,11,0.70
2013-5-7,82.0,72.6,48.6,57.6,52.2,46.7,99,51,30,30.03,29.93,8,2,8,0.70
2013-5-8,82.0,76.5,68.9,61.3,56.3,52.3,66,50,38,29.95,29.87,14,5,14,0.70
2013-5-9,78.6,67.9,59.2,63.0,60.0,57.4,99,78,53,29.91,29.86,17,5,17,1.37
2013-5-10,70.7,67.9,56.3,62.5,58.8,56.0,99,73,63,29.94,29.85,14,7,14,1.68
2013-5-11,68.5,68.5,68.5,58.4,58.4,58.4,70,70,70,29.92,29.92,7,7,8,1.68
2013-5-12,71.6,60.7,41.4,49.5,40.8,29.8,89,53,24,30.21,30.08,11,3,11,0.01
2013-5-13,80.8,73.2,50.5,57.6,54.7,47.1,88,54,41,30.11,30.00,11,5,11,0.02
2013-5-14,88.5,73.3,60.4,59.5,53.5,48.2,75,52,27,30.02,29.92,21,6,21,0.00
2013-5-15,78.3,67.6,62.1,67.9,60.5,50.6,99,79,59,29.96,29.86,21,3,21,0.63
2013-5-16,64.4,64.4,64.4,64.1,64.1,64.1,99,99,99,29.87,29.87,1,1,2,0.63
2013-5-17,80.2,68.2,64.4,66.1,64.4,63.6,99,89,62,29.89,29.84,3,1,3,0.69
2013-5-18,88.3,74.7,62.4,74.7,69.2,61.8,99,84,63,29.89,29.78,14,4,14,0.00
2013-5-19,88.7,78.5,70.9,70.7,66.5,59.8,97,70,41,29.82,29.64,23,6,23,0.00
2013-5-20,77.7,70.4,60.1,70.8,66.1,58.7,99,86,75,29.80,29.67,24,4,30,0.35
2013-5-21,63.5,59.9,57.2,60.7,59.0,56.8,99,97,88,29.84,29.53,24,4,24,1.06
2013-5-22,74.3,69.2,52.7,62.2,58.3,52.0,99,70,58,29.83,29.75,17,8,17,0.01
2013-5-23,73.4,71.0,60.8,60.6,58.5,56.3,87,65,60,30.08,29.83,10,8,17,0.01
2013-5-24,80.6,73.7,54.5,62.2,58.5,53.4,96,60,49,30.22,30.11,11,4,11,0.00
2013-5-25,86.2,76.0,68.4,67.3,64.7,57.3,85,69,52,30.11,30.02,10,3,10,0.00
2013-5-26,84.2,77.0,65.1,67.3,64.7,62.1,95,67,51,30.08,29.94,15,6,15,0.00
2013-5-27,83.8,74.5,66.7,69.8,66.4,62.5,97,77,59,29.96,29.78,19,7,19,0.00
2013-5-28,85.5,77.4,71.2,67.9,65.2,63.0,84,66,54,29.85,29.75,21,8,21,0.00
2013-5-29,81.3,74.3,68.5,68.6,65.6,64.1,88,75,61,29.86,29.73,18,6,18,0.00
2013-5-30,80.1,69.3,61.2,69.5,65.1,60.6,99,87,67,29.82,29.69,26,6,26,0.59
2013-5-31,86.9,72.1,61.5,73.7,68.1,61.0,99,88,61,29.77,29.64,14,5,14,0.01
2013-6-1,78.3,69.0,56.5,72.9,64.2,56.1,99,85,66,29.94,29.67,20,5,20,0.63
2013-6-2,68.9,59.4,51.8,59.1,55.4,51.3,99,87,66,30.00,29.92,11,2,11,0.00
2013-6-3,85.5,65.0,46.8,61.4,54.8,46.5,99,75,35,30.00,29.86,8,2,8,0.00
2013-6-4,81.1,68.0,61.2,69.1,62.1,58.1,91,82,61,29.95,29.87,8,2,8,0.00
2013-6-5,80.4,69.9,64.8,70.1,64.5,62.3,95,84,62,29.92,29.81,20,4,20,0.28
2013-6-6,73.8,66.2,57.0,64.6,61.8,56.8,99,86,64,29.90,29.84,14,3,14,0.28
2013-6-7,79.7,65.4,53.6,60.7,55.5,52.6,99,74,45,29.94,29.86,14,2,14,0.00
2013-6-8,84.9,74.8,54.3,62.3,58.6,53.0,97,59,42,29.92,29.81,10,3,10,0.00
2013-6-9,82.8,71.7,64.6,69.6,62.0,57.1,96,73,44,29.88,29.80,14,3,14,0.06
2013-6-10,92.1,77.7,67.3,72.9,65.5,60.9,83,68,42,29.89,29.81,18,4,18,0.06
2013-6-11,94.1,81.6,69.8,71.4,67.7,62.0,87,65,38,29.98,29.88,14,3,14,0.00
2013-6-12,91.8,81.1,71.4,72.4,70.2,66.3,93,71,47,29.96,29.86,20,6,20,0.00
2013-6-13,91.0,75.8,69.3,71.9,68.9,64.8,97,81,43,29.99,29.90,9,3,9,0.00
2013-6-14,95.4,78.7,66.7,76.4,70.5,65.8,97,77,53,30.00,29.90,10,2,10,0.00
2013-6-15,94.5,76.2,68.0,76.7,68.8,64.2,99,79,52,30.00,29.92,17,3,17,0.13
2013-6-16,93.0,77.7,68.2,74.2,70.1,67.9,99,79,50,29.98,29.87,11,3,11,0.01
2013-6-17,80.4,72.8,65.5,71.1,68.1,65.1,99,85,71,29.93,29.85,10,2,10,0.70
2013-6-18,92.1,75.5,61.9,70.4,65.6,61.3,99,75,42,29.99,29.90,7,2,7,0.00
2013-6-19,91.2,80.4,67.8,69.2,66.1,62.6,93,64,43,30.01,29.93,10,2,10,0.00
2013-6-20,91.0,78.8,65.3,72.1,68.4,64.0,97,72,49,30.05,29.96,12,3,12,0.00
2013-6-21,88.0,82.0,73.4,74.6,72.5,70.0,91,74,63,30.05,29.98,13,5,13,0.00
2013-6-22,92.5,84.7,73.0,73.1,71.0,68.6,88,65,50,30.04,29.92,11,4,11,0.00
2013-6-23,92.1,80.9,71.4,73.6,70.2,67.0,93,72,47,29.98,29.89,16,4,16,0.00
2013-6-24,91.4,81.2,72.0,72.9,69.5,67.5,89,69,49,30.01,29.92,16,4,16,0.00
2013-6-25,89.4,77.6,73.6,72.0,69.8,65.4,89,78,49,29.95,29.84,17,4,17,0.00
2013-6-26,95.9,82.7,72.9,76.9,72.4,69.5,95,72,50,29.91,29.81,17,5,17,0.00
2013-6-27,100.0,85.4,71.6,78.0,73.4,70.0,99,72,42,29.95,29.83,11,2,11,0.00
2013-6-28,92.1,81.6,68.7,75.7,68.3,57.8,91,66,41,29.92,29.80,13,4,13,0.00
2013-6-29,86.4,80.1,62.6,60.4,56.0,52.3,82,45,34,29.85,29.76,21,7,21,0.00
2013-6-30,81.3,73.1,58.8,63.0,59.8,56.8,96,64,46,29.93,29.81,11,4,15,0.00
2013-7-1,82.4,76.7,58.8,61.1,57.3,53.6,99,53,39,29.99,29.91,12,5,12,0.00
2013-10-11,70.3,70.2,70.0,63.5,63.3,63.2,80,79,78,29.53,28.53,0,0,0,0.00
2013-10-12,71.8,63.4,0.0,66.0,65.8,65.1,84,74,81,30.15,30.12,0,0,0,0.65